Regional Weather Roundup
Issued by NWS Charleston, SC

Current Version | Previous Version | Text Only | Print | Product List | Glossary On
Versions: 1 2 3 4 5 6 7 8 9 10 11 12 13 14 15 16 17 18 19 20 21 22 23 24 25 26 27 28 29 30 31 32 33 34 35 36 37 38 39 40 41 42 43 44 45 46 47 48 49 50
000
ASUS42 KCHS 250012
RWRCHS

REGIONAL WEATHER ROUNDUP
NATIONAL WEATHER SERVICE CHARLESTON SC
800 PM EDT FRI MAR 24 2017

NOTE: "FAIR" INDICATES FEW OR NO CLOUDS BELOW 12,000 FEET WITH NO
SIGNIFICANT WEATHER AND/OR OBSTRUCTIONS TO VISIBILITY.

NOT ALL STATIONS ARE QUALITY CONTROLLED. USE DATA WITH CAUTION...
ESPECIALLY DEWPOINT OBSERVATIONS.

SCZ027-030-031-034>040-042>050-250100-
...SOUTHEAST SOUTH CAROLINA...

CITY           SKY/WX    TMP DP  RH WIND       PRES   REMARKS
N CHARLESTON   PTCLDY    66  50  56 SE9       30.38S
6HR MIN TEMP:  65; 6HR MAX TEMP:  75;

WATERFRONT PRK   N/A     63  59  87 VRB2      30.37S
JOHNS ISLAND   MOCLDY    63  55  77 CALM      30.39R
PINOPOLIS        N/A     66  48  52 VRB3      30.28F
MONCKS CORNER  FAIR      64  45  48 S3        30.38S
SUMMERVILLE    FAIR      66  48  52 SE3       30.39R
BEAUFORT MCAS  MOCLDY    67  57  70 E5        30.37S
6HR MIN TEMP:  67; 6HR MAX TEMP:  76;

BEAUFORT ARPT  FAIR      64  55  72 CALM      30.37S
HILTON HEAD IS MOCLDY    64  57  77 CALM      30.38S
WALTERBORO     CLEAR     64  50  59 SE7       30.38S
ALLENDALE      FAIR      68  48  49 SE10      30.34S

...SOUTHERN MIDLANDS AND PEE DEE...

CITY           SKY/WX    TMP DP  RH WIND       PRES   REMARKS
GEORGETOWN     FAIR      59  54  82 SE6       30.40S
KINGSTREE      CLOUDY    64  46  52 SE6       30.37S
ORANGEBURG     CLEAR     67  47  48 S9        30.35S
6HR MIN TEMP:  67; 6HR MAX TEMP:  75;

BARNWELL       FAIR      70  50  49 SE7       30.34S
AIKEN          FAIR      66  46  48 SE6       30.36S
MANNING        FAIR      64  46  52 CALM      30.36S
COLUMBIA       CLOUDY    70  47  43 SE7       30.33S
6HR MIN TEMP:  70; 6HR MAX TEMP:  77;

SUMTER         CLEAR     67  48  49 S7        30.33S
6HR MIN TEMP:  67; 6HR MAX TEMP:  76;

FLORENCE       CLEAR     64  51  62 S7        30.36S
6HR MIN TEMP:  64; 6HR MAX TEMP:  76;

MYRTLE BEACH   CLEAR     61  52  72 SE9       30.40F
N MYRTLE BEACH CLEAR     61  52  72 SE7       30.39S
6HR MIN TEMP:  61; 6HR MAX TEMP:  68;


$$

GAZ063-065-086>088-099>101-113>116-118-119-134>141-150-250100-
...SOUTHEAST GEORGIA...

CITY           SKY/WX    TMP DP  RH WIND       PRES   REMARKS
SAVANNAH ARPT  MOCLDY    66  54  65 E7        30.36S
6HR MIN TEMP:  66; 6HR MAX TEMP:  77;

HUNTER AAF     CLOUDY    66  58  75 E7        30.34S
6HR MIN TEMP:  66; 6HR MAX TEMP:  75;

FORT STEWART   MOCLDY    65  54  66 SE5       30.33S
6HR MIN TEMP:  65; 6HR MAX TEMP:  76;

STATESBORO     CLEAR     68  55  64 SE7       30.35S
SYLVANIA       CLEAR    N/A N/A N/A S7        30.36R
CLAXTON        FAIR      67  56  67 E5        30.35S

...CSRA...CENTRAL AND FAR SOUTHEAST GEORGIA...

CITY           SKY/WX    TMP DP  RH WIND       PRES   REMARKS
THOMSON        CLOUDY    69  45  41 SW7       30.35S
AUGUSTA-BUSH   CLEAR     70  47  43 SE7       30.31S
6HR MIN TEMP:  70; 6HR MAX TEMP:  80;

AUGUSTA-DANIEL CLEAR     72  45  37 SE8       30.32S
SWAINSBORO     FAIR      68  52  56 SE9       30.33R
VIDALIA        CLOUDY    70  54  56 SE9       30.33R
EASTMAN        FAIR      72  33  23 SE6       30.32S
HAZLEHURST     FAIR      71  51  49 SE5       30.31R
ALMA           CLEAR     69  51  52 E7        30.31S
6HR MIN TEMP:  69; 6HR MAX TEMP:  78;

WAYCROSS       PTCLDY    72  56  58 SE9       30.31S
JESUP          CLOUDY    70  52  52 SE5       30.34S
BAXLEY         FAIR      70  57  64 E6        30.32R
BRUNSWICK      CLEAR     63  59  88 NE5       30.35S
SAINT SIMONS   CLEAR     65  57  75 NE7       30.34S
6HR MIN TEMP:  65; 6HR MAX TEMP:  73;


$$

SCZ027-028-034-036>038-045-046-048>050-GAZ119-141-250100-
...LAKE AND SUPPLEMENTAL COASTAL OBSERVATIONS...

STATION/POSITION TIME  TEMP    WIND        PRES    WAVE   SWELL
                       AIR SEA DIR/SP/G            HT/PER HT/PER/DIR
                 (UTC) (F)     (DEG/KT/KT) (MB)    (FT/S) (FT/S/D)
WINYAH BAY       NOT AVBL
LAKE MURRAY      2320   66     160/  4/  6 1026.1
ACE BASIN NERRS  2245   68     130/  3     1028.0
FORT PULASKI     2342   62 61  100/  2/  3 1028.4F
SAPELO ISLAND    2300   67      90/  4     1028.0

$$

ANZ835-935-AMZ111-154-330-350-352-354-370-450-454-472-250100-
...C-MAN AND BUOY OBSERVATIONS...

STATION/POSITION TIME  TEMP    WIND        PRES    WAVE   SWELL
                       AIR SEA DIR/SP/G            HT/PER HT/PER/DIR
                 (UTC) (F)     (DEG/KT/KT) (MB)    (FT/S) (FT/S/D)
BUOY 41004       2250   68 72  110/ 10/ 14 1028.3    4/ 7   3/130/ 7
BUOY 41008       2250   64 63   80/  8/  8 1027.3    5/ 7   5/110/ 7
FOLLY BEACH CMAN 2300   61      70/  5/  6 1029.5F
CAPERS NEARSHORE 2308   61      90/  4/  6 1028.8R
FRIPP NEARSHORE  2308   62 60   70/  4/  8 1028.0F


STATION/POSITION TIME  TEMP    WIND        PRES    WAVE   SWELL
                       AIR SEA DIR/SP/G            HT/PER HT/PER/DIR
                 (UTC) (F)     (DEG/KT/KT) (MB)    (FT/S) (FT/S/D)
5E ST. MARYS GA  2330      64                N/A     5/ 8   2/ 80/11
FRYING PAN BUOY  2350   68 73  190/  8/ 12 1029.3S   3/ 9   3/110/ 9
BUOY 41025       2350   66 74  210/ 16/ 19 1029.5F   4/10   3/ 80/10
CAPE LOOKOUT NC  2300   65     190/ 12/ 15 1029.2F
BUOY 41002       2350   64 74   70/ 12/ 16 1031.0R   5/ 7   3/ 80/ 7
BUOY 41010       NOT AVBL
ST AUGUSTINE FL  0000   67 67  100/  8/  9 1027.2R


$$




USA.gov is the U.S. government's official web portal to all federal, state and local government web resources and services.